EW1914 Weather Reports


Display with metric or nautical units.
time (UTC)temp
F
wind
direction
speed
MPH
gust
MPH
rain 1hr
in
rain 24hr
in
rain mn
in
humidity
%
barometer
mb
20260503190002 75 0.0 0.0 0.00 0.00 0.00 59 1010.0
20260503184958 74 0.0 0.0 0.00 0.00 0.00 59 1010.1
20260503183958 73 0.0 0.0 0.00 0.00 0.00 62 1010.2
20260503183000 73 0.0 0.0 0.00 0.00 0.00 63 1010.4
20260503181958 72 0.0 0.0 0.00 0.00 0.00 65 1010.5
20260503180000 70 0.0 0.0 0.00 0.00 0.00 66 1010.8
20260503174958 69 0.0 0.0 0.00 0.00 0.00 70 1010.8
20260503173958 68 0.0 0.0 0.00 0.00 0.00 72 1011.0
20260503173001 67 0.0 0.0 0.00 0.00 0.00 73 1011.0
20260503171957 66 0.0 0.0 0.00 0.00 0.00 74 1011.1
20260503150958 56 0.0 0.0 0.00 0.00 0.00 93 1011.6
20260503080957 60 0.0 0.0 0.00 0.00 0.00 85 1011.7
20260503072000 61 0.0 0.0 0.00 0.00 0.00 83 1011.7
20260503071000 61 0.0 0.0 0.00 0.00 0.00 83 1011.8
20260503054959 63 0.0 0.0 0.00 0.00 0.00 80 1011.5
20260503053959 63 0.0 0.0 0.00 0.00 0.00 79 1011.4
20260503053004 63 0.0 0.0 0.00 0.00 0.00 78 1011.6
20260503052000 64 0.0 0.0 0.00 0.00 0.00 78 1011.5
20260503051000 64 0.0 0.0 0.00 0.00 0.00 77 1011.6
20260503044959 65 0.0 0.0 0.00 0.00 0.00 76 1012.0
20260503043000 65 0.0 0.0 0.00 0.00 0.00 75 1011.7
20260503041959 66 0.0 0.0 0.00 0.00 0.00 74 1011.7
20260503040959 66 0.0 0.0 0.00 0.00 0.00 73 1011.7
20260503040000 66 0.0 0.0 0.00 0.00 0.00 73 1011.7
20260503034958 67 0.0 0.0 0.00 0.00 0.00 72 1011.6
20260503033959 67 0.0 0.0 0.00 0.00 0.00 71 1011.4
20260503032959 67 0.0 0.0 0.00 0.00 0.00 71 1011.4
20260503031959 68 0.0 0.0 0.00 0.00 0.00 71 1011.2
20260503030959 68 0.0 0.0 0.00 0.00 0.00 70 1011.2
20260503030000 68 0.0 0.0 0.00 0.00 0.00 69 1011.3
20260503024958 69 0.0 0.0 0.00 0.00 0.00 68 1011.2
20260503023958 69 0.0 0.0 0.00 0.00 0.00 67 1011.2
20260503022959 70 0.0 0.0 0.00 0.00 0.00 65 1011.2
20260503021958 72 0.0 0.0 0.00 0.00 0.00 64 1011.0
20260503020959 73 0.0 0.0 0.00 0.00 0.00 62 1011.1
20260503014004 73 0.0 0.0 0.00 0.00 0.00 59 1010.2
20260503013000 74 0.0 0.0 0.00 0.00 0.00 59 1010.3
20260503010958 74 0.0 0.0 0.00 0.00 0.00 59 1010.2
20260503004958 74 0.0 0.0 0.00 0.00 0.00 59 1010.2
20260503003958 74 0.0 0.0 0.00 0.00 0.00 59 1010.3
20260503003000 73 0.0 0.0 0.00 0.00 0.00 59 1010.3
20260503000000 73 0.0 0.0 0.00 0.00 0.00 60 1010.5
20260502234957 73 0.0 0.0 0.00 0.00 0.00 60 1010.5
20260502231957 72 0.0 0.0 0.00 0.00 0.00 62 1011.0
20260502230957 72 0.0 0.0 0.00 0.00 0.00 60 1011.1
20260502230002 72 0.0 0.0 0.00 0.00 0.00 61 1011.3
20260502224959 71 0.0 0.0 0.00 0.00 0.00 62 1011.5
20260502223000 71 0.0 0.0 0.00 0.00 0.00 61 1011.8
20260502221959 71 0.0 0.0 0.00 0.00 0.00 62 1011.9
20260502220958 70 0.0 0.0 0.00 0.00 0.00 64 1012.2
20260502220003 69 0.0 0.0 0.00 0.00 0.00 65 1012.3
20260502214959 69 0.0 0.0 0.00 0.00 0.00 65 1012.5
20260502213958 68 0.0 0.0 0.00 0.00 0.00 66 1012.6
20260502213004 67 0.0 0.0 0.00 0.00 0.00 68 1012.7
20260502212000 66 0.0 0.0 0.00 0.00 0.00 69 1013.0
20260502210959 66 0.0 0.0 0.00 0.00 0.00 68 1013.0
20260502205958 64 0.0 0.0 0.00 0.00 0.00 73 1013.3
20260502204958 64 0.0 0.0 0.00 0.00 0.00 70 1013.5
20260502203957 64 0.0 0.0 0.00 0.00 0.00 70 1013.7
20260502203000 63 0.0 0.0 0.00 0.00 0.00 73 1013.7
20260502201957 63 0.0 0.0 0.00 0.00 0.00 73 1013.9
20260502200957 63 0.0 0.0 0.00 0.00 0.00 75 1013.9
20260502200001 62 0.0 0.0 0.00 0.00 0.00 75 1014.0
20260502193957 61 0.0 0.0 0.00 0.00 0.00 74 1014.2
20260502192959 61 0.0 0.0 0.00 0.00 0.00 75 1014.5
20260502191958 60 0.0 0.0 0.00 0.00 0.00 76 1014.7
20260502191000 60 0.0 0.0 0.00 0.00 0.00 75 1014.8